Weather History for KMZZ - June, 2013

Change the Weather History Date:

Wednesday, June 12, 2013

  Actual Average (KMIE) Record (KMIE)
Temperature  
Mean Temperature 76 °F 71 °F  
Max Temperature 87 °F 81 °F 92 °F (1968)
Min Temperature 65 °F 61 °F 44 °F (1972)
Degree Days  
Heating Degree Days 0 1  
Month to date heating degree days 17  
Since 1 June heating degree days 17  
Since 1 July heating degree days 5776  
Cooling Degree Days 12 6  
Month to date cooling degree days 64  
Year to date cooling degree days 147  
Since 1 June cooling degree days 64  
Growing Degree Days 26 (Base 50)    
Moisture  
Dew Point 68 °F    
Average Humidity 73    
Maximum Humidity 94    
Minimum Humidity 51    
Precipitation  
Precipitation 1.06 in 0.14 in 1.48 in (1989)
Month to date precipitation 1.93  
Year to date precipitation 17.50  
Sea Level Pressure  
Sea Level Pressure 29.85 in    
Wind  
Wind Speed 6 mph (SW)    
Max Wind Speed 28 mph    
Max Gust Speed 45 mph    
Visibility 7 miles    
Events Rain    
T = Trace of Precipitation, MM = Missing Value Source: NWS Daily Summary

Daily Weather History Graph

Daily Weather History Graph

Search for Another Location

Airport or City:

Trip Planner

Search our weather history database for the weather conditions in past years. The results will help you decide how hot, cold, wet, or windy it might be!

Date:

Astronomy

Jun. 12, 2013 Rise Set
Actual Time 6:11 AM EDT 9:13 PM EDT
Civil Twilight 5:38 AM EDT 9:46 PM EDT
Nautical Twilight 4:56 AM EDT 10:29 PM EDT
Astronomical Twilight 4:07 AM EDT 11:18 PM EDT
Moon 9:51 AM EDT (6/12) 11:48 PM EDT (6/12)
Length of Visible Light 16h 08m
Length of Day
15h 02m
Waxing Crescent, 14% of the Moon is Illuminated
Jun 12
Waxing Crescent
Jun 16
First Quarter
Jun 23
Full
Jun 30
Last Quarter
Jul 8
New

Hourly Weather History & Observations

Time (EDT) Temp. Heat Index Dew Point Humidity Pressure Visibility Wind Dir Wind Speed Gust Speed Precip Events Conditions
12:15 AM 69.3 °F - 65.7 °F 88% 29.90 in 7.0 mi SSW 3.5 mph - N/A   Mostly Cloudy
12:35 AM 70.2 °F - 65.5 °F 85% 29.90 in 7.0 mi Calm Calm - N/A   Overcast
12:55 AM 70.9 °F - 64.8 °F 81% 29.90 in 10.0 mi SW 3.5 mph - N/A   Mostly Cloudy
1:15 AM 70.9 °F - 64.6 °F 80% 29.90 in 7.0 mi SW 4.6 mph - N/A   Scattered Clouds
1:35 AM 70.7 °F - 64.4 °F 80% 29.90 in 10.0 mi SSW 4.6 mph - N/A   Scattered Clouds
1:55 AM 70.9 °F - 64.6 °F 80% 29.90 in 10.0 mi SSW 6.9 mph - N/A   Overcast
2:15 AM 70.3 °F - 64.8 °F 82% 29.88 in 10.0 mi SSW 6.9 mph - N/A   Scattered Clouds
2:35 AM 70.0 °F - 64.6 °F 83% 29.88 in 7.0 mi SW 4.6 mph - N/A   Clear
2:55 AM 70.2 °F - 64.2 °F 81% 29.89 in 7.0 mi SSW 3.5 mph - N/A   Clear
3:15 AM 70.0 °F - 64.4 °F 82% 29.88 in 7.0 mi SSW 3.5 mph - N/A   Clear
3:35 AM 69.6 °F - 64.4 °F 83% 29.89 in 10.0 mi Calm Calm - N/A   Scattered Clouds
3:55 AM 69.3 °F - 64.8 °F 86% 29.88 in 7.0 mi SW 3.5 mph - N/A   Overcast
4:15 AM 69.1 °F - 64.9 °F 87% 29.89 in 7.0 mi Calm Calm - N/A   Scattered Clouds
4:35 AM 68.4 °F - 64.8 °F 88% 29.89 in 7.0 mi Calm Calm - N/A   Clear
4:55 AM 68.2 °F - 64.9 °F 89% 29.90 in 7.0 mi Calm Calm - N/A   Clear
5:15 AM 67.3 °F - 64.6 °F 91% 29.90 in 7.0 mi Calm Calm - N/A   Clear
5:35 AM 66.9 °F - 64.4 °F 92% 29.91 in 5.0 mi Calm Calm - N/A   Clear
5:55 AM 66.6 °F - 64.4 °F 93% 29.92 in 4.0 mi Calm Calm - N/A   Clear
6:15 AM 66.4 °F - 64.4 °F 93% 29.92 in 3.0 mi Calm Calm - N/A   Clear
6:35 AM 66.2 °F - 64.4 °F 94% 29.91 in 2.5 mi Calm Calm - N/A   Clear
6:55 AM 66.4 °F - 64.4 °F 93% 29.92 in 3.0 mi Calm Calm - N/A   Clear
7:15 AM 67.3 °F - 65.5 °F 94% 29.93 in 3.0 mi Calm Calm - N/A   Clear
7:35 AM 69.1 °F - 66.9 °F 93% 29.91 in 4.0 mi Calm Calm - N/A   Clear
7:55 AM 70.2 °F - 67.6 °F 92% 29.91 in 5.0 mi South 3.5 mph - N/A   Clear
8:15 AM 71.8 °F - 68.2 °F 88% 29.90 in 4.0 mi South 4.6 mph - N/A   Clear
8:35 AM 73.0 °F - 68.4 °F 85% 29.91 in 7.0 mi SSW 6.9 mph - N/A   Clear
8:55 AM 73.6 °F - 68.5 °F 84% 29.93 in 5.0 mi SW 6.9 mph - N/A   Haze
9:15 AM 74.1 °F - 68.9 °F 84% 29.93 in 5.0 mi WSW 4.6 mph - N/A   Haze
9:35 AM 75.2 °F - 69.3 °F 82% 29.93 in 7.0 mi SW 6.9 mph - N/A   Clear
9:55 AM 76.5 °F - 69.8 °F 80% 29.93 in 10.0 mi West 6.9 mph - N/A   Clear
10:15 AM 77.5 °F - 69.6 °F 76% 29.93 in 7.0 mi West 5.8 mph - N/A   Clear
10:35 AM 77.7 °F - 69.8 °F 76% 29.92 in 7.0 mi West 4.6 mph - N/A   Clear
10:55 AM 78.4 °F - 69.8 °F 75% 29.92 in 7.0 mi WSW 4.6 mph - N/A   Clear
11:15 AM 79.3 °F - 69.8 °F 72% 29.92 in 7.0 mi West 4.6 mph - N/A   Clear
11:35 AM 80.1 °F 83.2 °F 70.0 °F 71% 29.93 in 10.0 mi West 4.6 mph - N/A   Clear
11:55 AM 80.8 °F 84.2 °F 70.3 °F 70% 29.91 in 7.0 mi SW 3.5 mph - N/A   Clear
12:15 PM 81.7 °F 85.4 °F 70.2 °F 68% 29.91 in 7.0 mi SW 6.9 mph - N/A   Clear
12:35 PM 82.0 °F 85.7 °F 69.8 °F 66% 29.91 in 7.0 mi SSW 5.8 mph - N/A   Clear
12:55 PM 82.8 °F 86.4 °F 69.6 °F 64% 29.89 in 5.0 mi SW 9.2 mph - N/A   Haze
1:15 PM 83.7 °F 87.7 °F 70.0 °F 63% 29.88 in 5.0 mi SW 6.9 mph - N/A   Haze
1:35 PM 84.2 °F 88.1 °F 69.6 °F 61% 29.87 in 7.0 mi SSW 10.4 mph - N/A   Clear
1:55 PM 84.2 °F 88.1 °F 69.4 °F 61% 29.84 in 7.0 mi WSW 8.1 mph - N/A   Clear
2:15 PM 84.4 °F 88.2 °F 69.3 °F 60% 29.83 in 10.0 mi SW 10.4 mph - N/A   Clear
2:35 PM 84.0 °F 87.8 °F 69.3 °F 61% 29.83 in 7.0 mi WSW 10.4 mph - N/A   Clear
2:55 PM 84.7 °F 88.8 °F 69.3 °F 60% 29.82 in 7.0 mi SW 10.4 mph - N/A   Clear
3:15 PM 85.1 °F 89.1 °F 69.4 °F 59% 29.82 in 7.0 mi SW 10.4 mph - N/A   Clear
3:35 PM 85.6 °F 90.4 °F 70.2 °F 60% 29.81 in 7.0 mi SW 11.5 mph 17.3 mph N/A   Clear
3:55 PM 85.5 °F 89.4 °F 69.3 °F 58% 29.80 in 7.0 mi SW 16.1 mph - N/A   Clear
4:15 PM 85.8 °F 90.1 °F 69.3 °F 58% 29.79 in 7.0 mi SSW 17.3 mph 24.2 mph N/A   Clear
4:35 PM 87.1 °F 91.3 °F 69.1 °F 55% 29.80 in 7.0 mi SW 18.4 mph - N/A   Clear
4:55 PM 87.8 °F 92.2 °F 69.1 °F 54% 29.79 in 7.0 mi WSW 19.6 mph - N/A   Clear
5:15 PM 87.6 °F 90.8 °F 67.6 °F 51% 29.79 in 7.0 mi WSW 18.4 mph 28.8 mph N/A   Clear
5:35 PM 86.2 °F 89.1 °F 67.1 °F 53% 29.78 in 10.0 mi WSW 15.0 mph 24.2 mph N/A   Clear
5:55 PM 86.5 °F 89.6 °F 67.8 °F 53% 29.79 in 7.0 mi WSW 18.4 mph 26.5 mph N/A   Clear
6:15 PM 86.4 °F 90.0 °F 68.5 °F 55% 29.79 in 7.0 mi WSW 12.7 mph - N/A   Clear
6:35 PM 85.8 °F 90.4 °F 69.8 °F 59% 29.78 in 10.0 mi WSW 12.7 mph 17.3 mph N/A   Scattered Clouds
6:55 PM 85.1 °F 88.8 °F 68.9 °F 58% 29.77 in 7.0 mi WSW 13.8 mph 17.3 mph N/A   Scattered Clouds
7:15 PM 85.3 °F 89.1 °F 68.9 °F 58% 29.76 in 5.0 mi WSW 13.8 mph 18.4 mph N/A   Haze
7:35 PM 84.6 °F 88.5 °F 69.1 °F 60% 29.76 in 5.0 mi SW 16.1 mph 20.7 mph N/A   Haze
7:55 PM 83.7 °F 87.5 °F 69.3 °F 62% 29.75 in 7.0 mi SW 12.7 mph - N/A   Clear
8:15 PM 82.8 °F 86.4 °F 69.6 °F 64% 29.74 in 7.0 mi SSW 10.4 mph - N/A   Clear
8:35 PM 82.0 °F 85.7 °F 69.8 °F 66% 29.74 in 7.0 mi SSW 8.1 mph - N/A   Clear
8:55 PM 81.7 °F 85.2 °F 69.8 °F 67% 29.72 in 7.0 mi South 8.1 mph - N/A   Clear
9:15 PM 81.3 °F 84.6 °F 69.6 °F 67% 29.71 in 7.0 mi SSW 9.2 mph - N/A   Clear
9:35 PM 81.3 °F 84.8 °F 69.8 °F 68% 29.70 in 7.0 mi South 9.2 mph - N/A   Clear
9:55 PM 80.8 °F 84.1 °F 69.8 °F 69% 29.69 in 10.0 mi South 10.4 mph - N/A   Clear
10:15 PM 81.1 °F 84.4 °F 69.4 °F 67% 29.68 in 10.0 mi South 10.4 mph - N/A   Scattered Clouds
10:35 PM 81.3 °F 84.5 °F 69.1 °F 66% 29.69 in 10.0 mi SSW 11.5 mph - N/A   Scattered Clouds
10:55 PM 81.1 °F 84.4 °F 69.1 °F 67% 29.68 in 7.0 mi SSW 11.5 mph - N/A   Scattered Clouds
11:15 PM 81.1 °F 83.9 °F 67.8 °F 64% 29.76 in 10.0 mi North 27.6 mph 38.0 mph N/A   Mostly Cloudy
11:35 PM 70.5 °F - 61.2 °F 72% 29.75 in 2.0 mi North 16.1 mph 44.9 mph 0.08 in Rain Heavy Rain
11:55 PM 65.1 °F - 62.2 °F 90% 29.75 in 0.8 mi NNW 12.7 mph 28.8 mph 1.06 in Rain Heavy Rain